Weather History for Casper, WY

Change the Weather History Date:

Sunday, May 19, 2013

  Actual Average Record
Temperature  
Mean Temperature 50 °F 53 °F  
Max Temperature 54 °F 68 °F 89 °F (1992)
Min Temperature 45 °F 38 °F 27 °F (1966)
Degree Days  
Heating Degree Days 15 12  
Month to date heating degree days 225 281  
Since 1 July heating degree days 7088 7323  
Cooling Degree Days 0 0  
Month to date cooling degree days 10 0  
Year to date cooling degree days 10 0  
Moisture  
Dew Point 45 °F    
Average Humidity 85    
Maximum Humidity 93    
Minimum Humidity 77    
Precipitation  
Precipitation 1.24 in 0.07 in 1.24 in (2013)
Month to date precipitation 1.58 1.24  
Year to date precipitation 5.74 4.43  
Snow  
Snow 0.00 in 0.10 in - ()
Month to date snowfall 3.5 2.6  
Since 1 July snowfall 85.7 74.5  
Snow Depth 0.00 in    
Sea Level Pressure  
Sea Level Pressure 29.86 in    
Wind  
Wind Speed 11 mph (NW)    
Max Wind Speed 22 mph    
Max Gust Speed 26 mph    
Visibility 6 miles    
Events Rain    
T = Trace of Precipitation, MM = Missing Value Source: NWS Daily Summary

Daily Weather History Graph

Daily Weather History Graph

Search for Another Location

Airport:

Trip Planner

Search our weather history database for the weather conditions in past years. The results will help you decide how hot, cold, wet, or windy it might be!

Date:

Astronomy

May. 19, 2013 Rise Set
Actual Time 5:38 AM MDT 8:26 PM MDT
Civil Twilight 5:05 AM MDT 8:59 PM MDT
Nautical Twilight 4:24 AM MDT 9:41 PM MDT
Astronomical Twilight 3:35 AM MDT 10:30 PM MDT
Moon 2:25 PM MDT (5/19) 2:12 AM MDT (5/19)
Length of Visible Light 15h 54m
Length of Day
14h 47m
Waxing Gibbous, 66% of the Moon is Illuminated
May 19
Waxing Gibbous
May 24
Full
May 31
Last Quarter
Jun 8
New
Jun 16
First Quarter

Hourly Weather History & Observations

Time (MDT) Temp. Windchill Dew Point Humidity Pressure Visibility Wind Dir Wind Speed Gust Speed Precip Events Conditions
12:13 AM 50.0 °F - 44.6 °F 82% 29.91 in 10.0 mi NNW 6.9 mph - N/A   Overcast
12:43 AM 48.2 °F - 46.4 °F 93% 29.91 in 5.0 mi North 9.2 mph - 0.00 in Rain Light Rain
12:53 AM 48.9 °F - 46.0 °F 90% 29.77 in 4.0 mi NNW 5.8 mph - 0.01 in Rain Light Rain
1:53 AM 48.0 °F - 45.0 °F 89% 29.79 in 10.0 mi North 8.1 mph - 0.01 in   Overcast
2:00 AM 48.2 °F - 46.4 °F 93% 29.90 in 10.0 mi North 6.9 mph - N/A   Overcast
2:27 AM 48.2 °F - 46.4 °F 93% 29.89 in 4.0 mi WNW 8.1 mph - N/A Rain Light Rain
2:34 AM 46.4 °F 42.4 °F 46.4 °F 100% 29.90 in 1.8 mi WNW 8.1 mph - 0.03 in Rain Rain
2:41 AM 46.4 °F 43.5 °F 46.4 °F 100% 29.90 in 1.2 mi West 5.8 mph - 0.11 in Rain Rain
2:45 AM 46.4 °F 43.5 °F 46.4 °F 100% 29.90 in 2.0 mi West 5.8 mph - 0.12 in Rain Rain
2:53 AM 46.9 °F - 45.0 °F 93% 29.78 in 3.0 mi Variable 4.6 mph - 0.14 in Rain Rain
3:14 AM 48.2 °F - 44.6 °F 87% 29.90 in 5.0 mi NNE 4.6 mph - 0.05 in Rain Rain
3:50 AM 46.4 °F 45.2 °F 44.6 °F 93% 29.90 in 1.8 mi Variable 3.5 mph - 0.15 in Rain Heavy Rain
3:53 AM 46.4 °F 43.5 °F 44.6 °F 93% 29.90 in 1.5 mi NNE 5.8 mph - N/A Rain Heavy Rain
4:05 AM 46.4 °F 44.3 °F 44.6 °F 93% 29.90 in 1.8 mi North 4.6 mph - 0.11 in Rain Heavy Rain
4:16 AM 46.4 °F 42.9 °F 44.6 °F 93% 29.90 in 2.5 mi NNW 6.9 mph - 0.16 in Rain Rain
4:20 AM 46.4 °F 43.5 °F 44.6 °F 93% 29.90 in 3.0 mi NNW 5.8 mph - 0.17 in Rain Light Rain
4:34 AM 46.4 °F 45.2 °F 44.6 °F 93% 29.90 in 2.0 mi NNW 3.5 mph - 0.23 in Rain Rain
4:48 AM 46.4 °F - 44.6 °F 93% 29.90 in 3.0 mi Calm Calm - 0.27 in Rain Rain
4:53 AM 46.9 °F - 45.0 °F 93% 29.77 in 2.5 mi Calm Calm - 0.29 in Rain Rain
5:01 AM 46.4 °F 45.2 °F 44.6 °F 93% 29.89 in 2.0 mi North 3.5 mph - 0.03 in Rain Rain
5:10 AM 46.4 °F 43.5 °F 44.6 °F 93% 29.89 in 2.5 mi North 5.8 mph - 0.07 in Rain Rain
5:23 AM 46.4 °F 42.4 °F 44.6 °F 93% 29.89 in 4.0 mi North 8.1 mph - 0.12 in Rain Rain
5:48 AM 46.4 °F 45.2 °F 44.6 °F 93% 29.89 in 4.0 mi NW 3.5 mph - 0.18 in Rain Light Rain
5:53 AM 46.4 °F 43.5 °F 44.6 °F 93% 29.89 in 4.0 mi NW 5.8 mph - N/A Rain Rain
6:20 AM 46.4 °F 45.2 °F 44.6 °F 93% 29.89 in 6.0 mi WNW 3.5 mph - 0.04 in Rain Light Rain
6:29 AM 46.4 °F 44.3 °F 44.6 °F 93% 29.89 in 5.0 mi NW 4.6 mph - 0.06 in Rain Light Rain
6:41 AM 46.4 °F 45.2 °F 44.6 °F 93% 29.89 in 4.0 mi NW 3.5 mph - 0.08 in Rain Rain
6:53 AM 46.9 °F - 44.1 °F 90% 29.79 in 4.0 mi WNW 3.5 mph - 0.10 in Rain Light Rain
7:09 AM 46.4 °F 43.5 °F 44.6 °F 93% 29.89 in 5.0 mi WNW 5.8 mph - 0.01 in Rain Light Rain
7:17 AM 46.4 °F 42.9 °F 44.6 °F 93% 29.89 in 6.0 mi West 6.9 mph - 0.01 in Rain Light Rain
7:19 AM 46.4 °F 43.5 °F 44.6 °F 93% 29.89 in 6.0 mi WNW 5.8 mph - 0.01 in Rain Light Rain
7:53 AM 46.9 °F - 44.1 °F 90% 29.79 in 10.0 mi SW 8.1 mph - 0.02 in Rain Light Rain
8:53 AM 46.9 °F - 44.1 °F 90% 29.81 in 10.0 mi SSW 10.4 mph - 0.00 in   Overcast
9:53 AM 48.0 °F - 44.1 °F 86% 29.82 in 10.0 mi SW 16.1 mph - 0.00 in   Overcast
10:00 AM 48.2 °F - 44.6 °F 87% 29.89 in 10.0 mi SW 13.8 mph - N/A   Overcast
10:53 AM 52.0 °F - 45.0 °F 77% 29.79 in 10.0 mi SSW 19.6 mph - N/A   Mostly Cloudy
11:53 AM 52.0 °F - 46.0 °F 80% 29.79 in 8.0 mi SW 15.0 mph - 0.00 in Rain Light Rain
12:53 PM 53.6 °F - 46.4 °F 77% 29.86 in 10.0 mi West 17.3 mph 23.0 mph N/A Rain Light Rain
1:05 PM 53.6 °F - 46.4 °F 77% 29.86 in 10.0 mi West 16.1 mph 23.0 mph 0.00 in Rain Light Rain
1:33 PM 48.2 °F - 42.8 °F 82% 29.87 in 10.0 mi NNW 10.4 mph - 0.00 in   Overcast
1:53 PM 48.9 °F - 44.1 °F 83% 29.80 in 10.0 mi North 11.5 mph - 0.00 in   Overcast
1:57 PM 48.2 °F - 44.6 °F 87% 29.87 in 9.0 mi North 11.5 mph - 0.00 in Rain Light Rain
2:53 PM 48.0 °F - 44.1 °F 86% 29.81 in 3.0 mi NW 16.1 mph - 0.05 in Rain Light Rain
3:53 PM 48.9 °F - 45.0 °F 86% 29.82 in 8.0 mi NW 13.8 mph 23.0 mph 0.04 in Rain Light Rain
4:53 PM 48.9 °F - 45.0 °F 86% 29.83 in 6.0 mi WNW 17.3 mph 23.0 mph 0.05 in Rain Light Rain
5:53 PM 50.0 °F - 46.0 °F 86% 29.82 in 8.0 mi WNW 16.1 mph - 0.03 in Rain Light Rain
6:53 PM 50.0 °F - 45.0 °F 83% 29.83 in 10.0 mi NW 15.0 mph - 0.01 in Rain Light Rain
6:57 PM 48.2 °F - 44.6 °F 87% 29.90 in 9.0 mi NW 15.0 mph - 0.00 in Rain Light Rain
7:53 PM 48.0 °F - 43.0 °F 83% 29.85 in 10.0 mi NNW 12.7 mph - 0.01 in Rain Light Rain
8:00 PM 48.2 °F - 42.8 °F 82% 29.92 in 10.0 mi NNW 12.7 mph - 0.00 in Rain Light Rain
8:53 PM 46.9 °F - 42.1 °F 83% 29.87 in 10.0 mi NW 11.5 mph - 0.01 in Rain Light Rain
9:05 PM 46.4 °F 41.1 °F 44.6 °F 93% 29.94 in 10.0 mi WNW 11.5 mph - 0.00 in Rain Light Rain
9:53 PM 46.4 °F 41.5 °F 42.8 °F 87% 29.95 in 10.0 mi WNW 10.4 mph - N/A Rain Light Rain
10:53 PM 46.0 °F 41.4 °F 43.0 °F 89% 29.88 in 7.0 mi WNW 9.2 mph - 0.02 in Rain Light Rain
11:53 PM 46.0 °F 42.5 °F 43.0 °F 89% 29.88 in 10.0 mi NW 6.9 mph - 0.00 in   Overcast